Regional Weather Roundup
Issued by NWS Cleveland, OH

Home | Current Version | Previous Version | Text Only | Print | Product List | Glossary On
Versions: 1 2 3 4 5 6 7 8 9 10 11 12 13 14 15 16 17 18 19 20 21 22 23 24 25 26 27 28 29 30 31 32 33 34 35 36 37 38 39 40 41 42 43 44 45 46 47 48 49 50
000
ASUS41 KCLE 262312
RWRCLE
OHIO REGIONAL WEATHER ROUNDUP
NATIONAL WEATHER SERVICE WILMINGTON, OH
700 PM EDT SUN MAR 26 2017

NOTE: "FAIR" INDICATES FEW OR NO CLOUDS BELOW 12,000 FEET WITH NO
SIGNIFICANT WEATHER AND/OR OBSTRUCTIONS TO VISIBILITY.

OHZ001>008-015>018-024>027-034-035-043-044-270000-
   NORTHWEST OHIO

CITY           SKY/WX    TMP DP  RH WIND       PRES   REMARKS
DEFIANCE       LGT RAIN  53  50  89 CALM      29.88R FOG
FINDLAY        FAIR      62  52  69 S12       29.88R
TOLEDO EXPRESS MOCLDY    54  52  93 NE6       29.88R
TOLEDO EXEC    FAIR      52  50  93 N3        29.89R
LIMA           RAIN      59  55  87 S17G23    29.90R FOG
$$

OHZ009>014-019>023-028>033-038-089-270000-
   NORTHEAST OHIO

CITY           SKY/WX    TMP DP  RH WIND       PRES   REMARKS
CLE-HOPKINS    MOCLDY    61  54  77 S6        29.95R
CLE-LAKEFRONT  CLOUDY    50  48  93 CALM      29.92F
CUY CO. ARPT   MOCLDY    55  54  94 VRB6      29.93R FOG
LORAIN-ELYRIA  MOCLDY    58  52  80 S10       29.92R
ASHTABULA      LGT RAIN  59  54  83 S9        29.94S
AKRON-CANTON   MOCLDY    59  52  77 S7        29.95R
WOOSTER        FAIR      58  51  78 S7        29.94S
MANSFIELD      MOCLDY    57  51  80 S13       29.92S
YOUNGSTOWN     LGT RAIN  58  52  80 SE17G23   29.96R
$$

OHZ042-051>053-060>062-070>072-077>081-270000-
  SOUTHWEST OHIO

CITY           SKY/WX    TMP DP  RH WIND       PRES   REMARKS
CINC-COVINGTON LGT RAIN  58  55  90 SW5       29.91R
CINC-LUNKEN    LGT RAIN  59  32  36 W12       29.92R
HAMILTON       LGT RAIN  60  58  92 W5        29.93R FOG
DAYTON         LGT RAIN  58  56  93 W10       29.92R
WRIGHT-PAT AFB LGT RAIN  59  59 100 SW6       29.91R
DAYTON GENERAL LGT RAIN  59  56  89 VRB7      29.91R
WILMINGTON     LGT RAIN  61  54  77 SW7       29.89S
$$

OHZ036-037-039>041-045>050-054>059-063>069-073>076-082>088-270000-
  CENTRAL AND SOUTHEAST OHIO

CITY           SKY/WX    TMP DP  RH WIND       PRES   REMARKS
COLUMBUS       FAIR      63  56  78 S6        29.90F
OSU AIRPORT    MOCLDY    62  56  80 SE5       29.90F
BOLTON FIELD   MOCLDY    63  55  77 S6        29.90F
RICKENBACK AFB CLOUDY    61  56  85 SE7       29.90F
NEWARK         FAIR      63  54  72 S9        29.91F
MARION         MOCLDY    58  54  86 S8        29.92S
LANCASTER      FAIR      65  54  67 S9        29.92F
ZANESVILLE     FAIR      59  52  77 S9        29.95S
NEW PHILLY     FAIR      60  55  83 S7        29.96R
$$



USA.gov is the U.S. government's official web portal to all federal, state and local government web resources and services.